Location: *
(53.9002°N, 27.5624°E)
Time: 08:43:21
(UTC+00:00)

MOS 1 - Pass Details

Date: 12 November 2019
Orbit: 879 x 890 km, 99.2° (Epoch: 13 December)

Event Time Altitude Azimuth Distance (km) Brightness Sun altitude
Exits shadow 17:02:25 56° 119° (ESE) 1,042 4.3 -24.3°
Maximum altitude 17:03:25 67° 68° (ENE) 953 4.2 -24.4°
Drops below altitude 10° 17:09:02 10° 347° (NNW) 2,552 6.9 -25.3°
Sets 17:11:27 0° 345° (NNW) 3,497 7.7 -25.6°
